This is the latest recevied weather packets stored in our database for station/object KB1ZFK. If no packets are shown the sender has not sent any weather packets the latest 10 day(s).
| Time | Temp. | Humidity | Pressure | Rain* | Wind** | Luminosity | Snow |
|---|---|---|---|---|---|---|---|
| 1777979149 | 11.11° C | 77% | 1008.5 hPa | 0 mm | - | 51 W/m² | - |
| 1777978846 | 11.11° C | 78% | 1008.5 hPa | 0 mm | - | 34 W/m² | - |
| 1777978543 | 10.56° C | 78% | 1008.5 hPa | 0 mm | - | 33 W/m² | - |
| 1777978238 | 10.56° C | 79% | 1008.5 hPa | 0 mm | - | 34 W/m² | - |
| 1777977935 | 10° C | 79% | 1008.5 hPa | 0 mm | - | 31 W/m² | - |
| 1777977633 | 10° C | 80% | 1008.4 hPa | 0 mm | - | 29 W/m² | - |
| 1777977330 | 10° C | 79% | 1008.4 hPa | 0 mm | - | 27 W/m² | - |
| 1777977027 | 10° C | 80% | 1008.2 hPa | 0 mm | - | 25 W/m² | - |
| 1777976724 | 10° C | 80% | 1008.4 hPa | 0 mm | - | 21 W/m² | - |
| 1777976421 | 9.44° C | 80% | 1008.4 hPa | 0 mm | - | 19 W/m² | - |
| 1777976120 | 9.44° C | 81% | 1008.5 hPa | 0 mm | - | 16 W/m² | - |
| 1777975816 | 10° C | 80% | 1008.7 hPa | 0 mm | - | 14 W/m² | - |
| 1777975513 | 10° C | 78% | 1008.3 hPa | 0 mm | - | 11 W/m² | - |
| 1777975210 | 10° C | 77% | 1008.5 hPa | 0 mm | - | 9 W/m² | - |
| 1777974906 | 10° C | 76% | 1008.5 hPa | 0 mm | - | 6 W/m² | - |
| 1777974602 | 10.56° C | 76% | 1008.4 hPa | 0 mm | - | 4 W/m² | - |
| 1777974299 | 10.56° C | 75% | 1008.4 hPa | 0 mm | - | 2 W/m² | - |
| 1777973995 | 10.56° C | 75% | 1008.3 hPa | 0 mm | - | 1 W/m² | - |
| 1777973692 | 10.56° C | 75% | 1008.6 hPa | 0 mm | - | 0 W/m² | - |
| 1777973389 | 10.56° C | 75% | 1008.5 hPa | 0 mm | - | 0 W/m² | - |
| 1777973087 | 10.56° C | 75% | 1008.7 hPa | 0 mm | - | 0 W/m² | - |
| 1777972784 | 10.56° C | 75% | 1008.8 hPa | 0 mm | - | 0 W/m² | - |
| 1777972482 | 10.56° C | 75% | 1008.5 hPa | 0 mm | - | 0 W/m² | - |
| 1777972179 | 10.56° C | 75% | 1008.6 hPa | 0 mm | - | 0 W/m² | - |
| 1777971878 | 10.56° C | 75% | 1008.6 hPa | 0 mm | - | 0 W/m² | - |
* Rain latest hour (hover to see other rain measurements)
** Current wind speed in m/s (hover to see current wind gust speed)